CST,Max TemperatureF,Mean TemperatureF,Min TemperatureF,Max Dew PointF,MeanDew PointF,Min DewpointF,Max Humidity, Mean Humidity, Min Humidity, Max Sea Level PressureIn, Mean Sea Level PressureIn, Min Sea Level PressureIn, Max VisibilityMiles, Mean VisibilityMiles, Min VisibilityMiles, Max Wind SpeedMPH, Mean Wind SpeedMPH, Max Gust SpeedMPH,PrecipitationIn, CloudCover, Events, WindDirDegrees
2012-11-1,75,59,42,51,45,41,100,66,31,30.09,30.02,29.99,10,9,6,8,1,13,0.00,0,,335
2012-11-2,84,66,48,62,55,46,96,68,40,30.04,30.00,29.96,10,9,5,15,4,20,0.00,0,,238
2012-11-3,84,71,57,64,58,55,100,70,40,30.14,30.07,30.01,10,7,0,15,4,21,0.00,2,Fog,239
2012-11-4,69,58,47,61,57,46,100,82,63,30.14,30.10,30.04,10,8,2,17,5,21,0.80,6,Rain-Thunderstorm,347
2012-11-5,53,49,44,50,47,43,100,86,71,30.11,30.03,29.93,10,8,2,13,3,14,0.22,7,Rain-Thunderstorm,116
2012-11-6,59,50,41,48,45,40,96,77,57,30.09,30.04,29.98,10,10,9,12,5,29,0.00,6,,325
2012-11-7,65,52,38,45,37,33,100,66,31,30.18,30.08,30.01,10,9,2,24,6,30,0.00,0,,341
2012-11-8,65,49,33,44,37,32,96,65,34,30.28,30.21,30.18,10,10,10,7,1,10,0.00,0,,102
2012-11-9,73,56,39,48,43,37,92,64,35,30.29,30.21,30.16,10,10,8,12,5,15,0.00,0,,162
2012-11-10,76,61,45,54,51,44,93,68,43,30.27,30.19,30.13,10,10,6,20,9,24,0.00,1,,154
2012-11-11,79,69,58,61,57,52,93,70,47,30.17,30.10,30.04,10,10,10,25,15,33,T,3,Rain-Thunderstorm,154
2012-11-12,69,54,39,64,47,33,96,76,55,30.43,30.29,30.06,10,9,2,26,10,35,1.05,6,Rain,332
2012-11-13,57,45,33,33,30,27,89,60,30,30.48,30.40,30.33,10,10,10,16,7,23,0.00,0,,8
2012-11-14,58,47,35,34,32,28,85,60,35,30.37,30.31,30.28,10,10,9,14,5,17,0.00,0,,351
2012-11-15,63,47,31,43,37,30,100,72,43,30.33,30.28,30.23,10,9,2,13,4,17,0.00,0,,3
2012-11-16,64,50,35,40,35,31,92,60,28,30.34,30.31,30.27,10,10,7,14,4,18,0.00,0,,360
2012-11-17,66,50,33,41,36,31,92,65,37,30.41,30.35,30.31,10,10,7,12,2,16,0.00,0,,10
2012-11-18,67,51,34,42,37,32,96,64,32,30.38,30.33,30.28,10,10,6,12,3,17,0.00,0,,42
2012-11-19,67,51,35,45,40,35,92,65,37,30.32,30.25,30.19,10,9,4,8,1,13,0.00,0,,32
2012-11-20,69,57,44,47,45,42,93,65,37,30.24,30.18,30.12,10,10,10,8,1,10,0.00,4,Rain,310
2012-11-21,74,58,41,49,45,40,93,63,33,30.23,30.18,30.15,10,9,6,12,2,,0.00,0,,350
2012-11-22,74,56,37,50,43,38,100,67,33,30.25,30.19,30.14,10,8,5,10,2,16,0.00,0,,178
2012-11-23,62,50,38,57,47,36,93,80,66,30.28,30.23,30.17,10,8,4,14,3,18,0.00,5,,306
2012-11-24,54,42,30,35,27,20,82,54,26,30.37,30.27,30.19,10,10,10,13,5,18,0.00,0,,354
2012-11-25,63,45,26,37,29,23,92,59,25,30.22,30.13,30.07,10,10,10,12,5,15,0.00,0,,171
2012-11-26,65,53,41,63,56,39,100,86,71,30.14,30.08,30.03,10,9,1,16,7,22,0.29,7,Rain-Thunderstorm,160
2012-11-27,64,51,37,62,45,35,100,91,82,30.35,30.24,30.05,10,6,1,22,8,28,0.57,6,Rain-Thunderstorm,346
2012-11-28,57,45,32,39,34,30,100,70,39,30.49,30.39,30.33,10,8,3,9,2,14,0.00,0,,20
2012-11-29,64,47,29,39,34,27,100,67,34,30.40,30.33,30.25,10,10,5,13,4,16,0.00,0,,138
2012-11-30,69,52,35,50,43,35,100,70,40,30.31,30.25,30.19,10,9,5,16,4,18,0.00,0,,145